Time,TemperatureF,DewpointF,PressureIn,WindDirection,WindDirectionDegrees,WindSpeedMPH,WindSpeedGustMPH,Humidity,HourlyPrecipIn,Conditions,Clouds,dailyrainin,SoftwareType,DateUTC
2013-04-09 00:05:00,65.1,50.9,29.73,WSW,241,17.0,-999.0,60,0.00,,,0.00,Wunderground v.1.15,2013-04-09 04:05:00,
2013-04-09 00:10:00,65.2,51.0,29.72,SW,225,18.0,-999.0,60,0.00,,,0.00,Wunderground v.1.15,2013-04-09 04:10:00,
2013-04-09 00:15:00,64.9,51.1,29.72,WSW,237,17.0,-999.0,61,0.00,,,0.00,Wunderground v.1.15,2013-04-09 04:15:00,
2013-04-09 00:20:00,65.0,51.2,29.73,SSW,212,17.0,-999.0,61,0.00,,,0.00,Wunderground v.1.15,2013-04-09 04:20:00,
2013-04-09 00:25:00,64.9,51.1,29.72,SW,230,18.0,-999.0,61,0.00,,,0.00,Wunderground v.1.15,2013-04-09 04:25:00,
2013-04-09 00:30:00,64.7,51.4,29.72,WSW,243,16.0,-999.0,62,0.00,,,0.00,Wunderground v.1.15,2013-04-09 04:30:00,
2013-04-09 00:40:00,64.7,51.4,29.72,SW,229,18.0,-999.0,62,0.00,,,0.00,Wunderground v.1.15,2013-04-09 04:40:00,
2013-04-09 00:45:00,64.7,51.4,29.73,SW,217,17.0,-999.0,62,0.00,,,0.00,Wunderground v.1.15,2013-04-09 04:45:00,
2013-04-09 00:50:00,64.6,51.3,29.73,WSW,237,16.0,-999.0,62,0.00,,,0.00,Wunderground v.1.15,2013-04-09 04:50:00,
2013-04-09 00:55:00,64.5,51.6,29.73,SW,235,16.0,-999.0,63,0.00,,,0.00,Wunderground v.1.15,2013-04-09 04:55:00,
2013-04-09 01:00:00,64.7,51.8,29.74,SW,229,16.0,-999.0,63,0.00,,,0.00,Wunderground v.1.15,2013-04-09 05:00:00,
2013-04-09 01:05:00,64.9,52.0,29.74,WSW,244,18.0,-999.0,63,0.00,,,0.00,Wunderground v.1.15,2013-04-09 05:05:00,
2013-04-09 01:10:00,65.0,52.1,29.74,SW,225,20.0,-999.0,63,0.00,,,0.00,Wunderground v.1.15,2013-04-09 05:10:00,
2013-04-09 01:15:00,65.0,52.1,29.74,SW,232,20.0,-999.0,63,0.00,,,0.00,Wunderground v.1.15,2013-04-09 05:15:00,
2013-04-09 01:20:00,64.6,52.1,29.74,WSW,246,19.0,-999.0,64,0.00,,,0.00,Wunderground v.1.15,2013-04-09 05:20:00,
2013-04-09 01:25:00,64.6,52.1,29.74,WSW,248,19.0,-999.0,64,0.00,,,0.00,Wunderground v.1.15,2013-04-09 05:25:00,
2013-04-09 01:30:00,64.3,52.3,29.75,WSW,257,19.0,-999.0,65,0.00,,,0.00,Wunderground v.1.15,2013-04-09 05:30:00,
2013-04-09 01:35:00,64.0,52.4,29.75,West,268,20.0,-999.0,66,0.00,,,0.00,Wunderground v.1.15,2013-04-09 05:35:00,
2013-04-09 01:40:00,63.8,52.2,29.75,West,264,20.0,-999.0,66,0.00,,,0.00,Wunderground v.1.15,2013-04-09 05:40:00,
2013-04-09 01:45:00,62.8,52.1,29.75,WSW,257,18.0,-999.0,68,0.00,,,0.00,Wunderground v.1.15,2013-04-09 05:45:00,
2013-04-09 01:50:00,61.8,51.9,29.75,WSW,250,19.0,-999.0,70,0.00,,,0.00,Wunderground v.1.15,2013-04-09 05:50:00,
2013-04-09 01:55:00,61.0,51.5,29.75,WSW,251,19.0,-999.0,71,0.00,,,0.00,Wunderground v.1.15,2013-04-09 05:55:00,
2013-04-09 02:00:00,60.6,50.8,29.76,WSW,255,19.0,-999.0,70,0.00,,,0.00,Wunderground v.1.15,2013-04-09 06:00:00,
2013-04-09 02:05:00,60.1,49.9,29.75,WSW,255,23.0,-999.0,69,0.00,,,0.00,Wunderground v.1.15,2013-04-09 06:05:00,
2013-04-09 02:10:00,59.5,49.3,29.76,West,263,24.0,-999.0,69,0.00,,,0.00,Wunderground v.1.15,2013-04-09 06:10:00,
2013-04-09 02:15:00,59.0,49.2,29.76,WNW,290,20.0,-999.0,70,0.00,,,0.00,Wunderground v.1.15,2013-04-09 06:15:00,
2013-04-09 02:20:00,58.0,48.3,29.76,West,275,16.0,-999.0,70,0.00,,,0.00,Wunderground v.1.15,2013-04-09 06:20:00,
2013-04-09 02:25:00,56.9,48.0,29.77,West,265,14.0,-999.0,72,0.00,,,0.00,Wunderground v.1.15,2013-04-09 06:25:00,
2013-04-09 02:30:00,56.1,47.6,29.77,West,267,15.0,-999.0,73,0.00,,,0.00,Wunderground v.1.15,2013-04-09 06:30:00,
2013-04-09 02:35:00,55.4,47.6,29.78,West,279,16.0,-999.0,75,0.00,,,0.00,Wunderground v.1.15,2013-04-09 06:35:00,
2013-04-09 02:40:00,54.9,47.1,29.78,WSW,255,16.0,-999.0,75,0.00,,,0.00,Wunderground v.1.15,2013-04-09 06:40:00,
2013-04-09 02:45:00,54.4,47.0,29.78,West,271,16.0,-999.0,76,0.00,,,0.00,Wunderground v.1.15,2013-04-09 06:45:00,
2013-04-09 02:50:00,54.1,47.0,29.79,West,263,14.0,-999.0,77,0.00,,,0.00,Wunderground v.1.15,2013-04-09 06:50:00,
2013-04-09 02:55:00,54.1,47.0,29.79,WSW,255,14.0,-999.0,77,0.00,,,0.00,Wunderground v.1.15,2013-04-09 06:55:00,
2013-04-09 03:00:00,54.1,47.0,29.79,WSW,252,16.0,-999.0,77,0.00,,,0.00,Wunderground v.1.15,2013-04-09 07:00:00,
2013-04-09 03:05:00,53.9,47.2,29.79,WSW,258,17.0,-999.0,78,0.00,,,0.00,Wunderground v.1.15,2013-04-09 07:05:00,
2013-04-09 03:10:00,53.8,47.1,29.79,WSW,255,17.0,-999.0,78,0.00,,,0.00,Wunderground v.1.15,2013-04-09 07:10:00,
2013-04-09 03:15:00,53.7,47.3,29.79,WSW,256,19.0,-999.0,79,0.00,,,0.00,Wunderground v.1.15,2013-04-09 07:15:00,
2013-04-09 03:20:00,53.5,47.5,29.80,WSW,257,19.0,-999.0,80,0.00,,,0.00,Wunderground v.1.15,2013-04-09 07:20:00,
2013-04-09 03:25:00,53.3,47.3,29.80,WSW,257,17.0,-999.0,80,0.00,,,0.00,Wunderground v.1.15,2013-04-09 07:25:00,
2013-04-09 03:30:00,53.1,47.4,29.80,West,281,13.0,-999.0,81,0.00,,,0.00,Wunderground v.1.15,2013-04-09 07:30:00,
2013-04-09 03:35:00,53.1,47.4,29.81,NW,311,12.0,-999.0,81,0.00,,,0.00,Wunderground v.1.15,2013-04-09 07:35:00,
2013-04-09 03:40:00,53.0,47.3,29.81,WNW,284,10.0,-999.0,81,0.00,,,0.00,Wunderground v.1.15,2013-04-09 07:40:00,
2013-04-09 03:45:00,52.7,47.4,29.81,West,263,7.0,-999.0,82,0.00,,,0.00,Wunderground v.1.15,2013-04-09 07:45:00,
2013-04-09 03:50:00,52.4,47.1,29.82,WSW,256,8.0,-999.0,82,0.00,,,0.00,Wunderground v.1.15,2013-04-09 07:50:00,
2013-04-09 03:55:00,52.1,47.1,29.82,WSW,255,15.0,-999.0,83,0.00,,,0.00,Wunderground v.1.15,2013-04-09 07:55:00,
2013-04-09 04:00:00,51.7,47.0,29.82,West,260,19.0,-999.0,84,0.00,,,0.00,Wunderground v.1.15,2013-04-09 08:00:00,
2013-04-09 04:05:00,51.6,46.9,29.82,WSW,257,18.0,-999.0,84,0.00,,,0.00,Wunderground v.1.15,2013-04-09 08:05:00,
2013-04-09 04:10:00,51.4,46.7,29.83,WSW,258,18.0,-999.0,84,0.00,,,0.00,Wunderground v.1.15,2013-04-09 08:10:00,
2013-04-09 04:15:00,51.1,46.4,29.83,WSW,252,18.0,-999.0,84,0.00,,,0.00,Wunderground v.1.15,2013-04-09 08:15:00,
2013-04-09 04:20:00,50.8,46.1,29.83,West,267,16.0,-999.0,84,0.00,,,0.00,Wunderground v.1.15,2013-04-09 08:20:00,
2013-04-09 04:25:00,50.4,46.1,29.84,West,261,15.0,-999.0,85,0.00,,,0.00,Wunderground v.1.15,2013-04-09 08:25:00,
2013-04-09 04:30:00,49.6,45.6,29.85,WSW,257,15.0,-999.0,86,0.00,,,0.00,Wunderground v.1.15,2013-04-09 08:30:00,
2013-04-09 04:35:00,48.9,45.2,29.85,West,259,16.0,-999.0,87,0.00,,,0.00,Wunderground v.1.15,2013-04-09 08:35:00,
2013-04-09 04:40:00,48.5,45.1,29.85,WSW,250,16.0,-999.0,88,0.00,,,0.00,Wunderground v.1.15,2013-04-09 08:40:00,
2013-04-09 04:45:00,48.2,44.8,29.85,West,272,17.0,-999.0,88,0.00,,,0.00,Wunderground v.1.15,2013-04-09 08:45:00,
2013-04-09 04:50:00,48.0,44.9,29.86,WSW,247,18.0,-999.0,89,0.00,,,0.00,Wunderground v.1.15,2013-04-09 08:50:00,
2013-04-09 04:55:00,47.9,44.8,29.85,WSW,254,17.0,-999.0,89,0.00,,,0.00,Wunderground v.1.15,2013-04-09 08:55:00,
2013-04-09 05:00:00,47.8,44.7,29.86,WSW,254,18.0,-999.0,89,0.00,,,0.00,Wunderground v.1.15,2013-04-09 09:00:00,
2013-04-09 05:05:00,47.7,44.6,29.86,WSW,250,18.0,-999.0,89,0.00,,,0.00,Wunderground v.1.15,2013-04-09 09:05:00,
2013-04-09 05:10:00,47.6,44.5,29.86,West,269,17.0,-999.0,89,0.00,,,0.00,Wunderground v.1.15,2013-04-09 09:10:00,
2013-04-09 05:15:00,47.6,44.5,29.86,West,269,14.0,-999.0,89,0.00,,,0.00,Wunderground v.1.15,2013-04-09 09:15:00,
2013-04-09 05:20:00,47.6,44.5,29.87,West,267,14.0,-999.0,89,0.00,,,0.00,Wunderground v.1.15,2013-04-09 09:20:00,
2013-04-09 05:25:00,47.6,44.2,29.87,West,265,14.0,-999.0,88,0.00,,,0.00,Wunderground v.1.15,2013-04-09 09:25:00,
2013-04-09 05:30:00,47.6,44.2,29.88,WSW,250,16.0,-999.0,88,0.00,,,0.00,Wunderground v.1.15,2013-04-09 09:30:00,
2013-04-09 05:35:00,47.5,44.1,29.88,WNW,291,18.0,-999.0,88,0.00,,,0.00,Wunderground v.1.15,2013-04-09 09:35:00,
2013-04-09 05:40:00,47.4,44.0,29.89,West,278,18.0,-999.0,88,0.00,,,0.00,Wunderground v.1.15,2013-04-09 09:40:00,
2013-04-09 05:45:00,47.2,43.8,29.89,West,259,18.0,-999.0,88,0.00,,,0.00,Wunderground v.1.15,2013-04-09 09:45:00,
2013-04-09 05:50:00,47.0,43.6,29.90,West,271,18.0,-999.0,88,0.00,,,0.00,Wunderground v.1.15,2013-04-09 09:50:00,
2013-04-09 05:55:00,46.9,43.5,29.90,WSW,248,15.0,-999.0,88,0.00,,,0.00,Wunderground v.1.15,2013-04-09 09:55:00,
2013-04-09 06:00:00,46.8,43.4,29.91,West,267,14.0,-999.0,88,0.00,,,0.00,Wunderground v.1.15,2013-04-09 10:00:00,
2013-04-09 06:10:00,46.3,42.9,29.92,WSW,258,15.0,-999.0,88,0.00,,,0.00,Wunderground v.1.15,2013-04-09 10:10:00,
2013-04-09 06:15:00,46.0,42.9,29.92,West,273,15.0,-999.0,89,0.00,,,0.00,Wunderground v.1.15,2013-04-09 10:15:00,
2013-04-09 06:20:00,45.8,42.7,29.93,West,265,14.0,-999.0,89,0.00,,,0.00,Wunderground v.1.15,2013-04-09 10:20:00,
2013-04-09 06:25:00,45.4,42.1,29.92,West,277,16.0,-999.0,88,0.00,,,0.00,Wunderground v.1.15,2013-04-09 10:25:00,
2013-04-09 06:30:00,45.2,41.9,29.94,WSW,250,19.0,-999.0,88,0.00,,,0.00,Wunderground v.1.15,2013-04-09 10:30:00,
2013-04-09 06:35:00,45.1,42.1,29.94,West,276,15.0,-999.0,89,0.00,,,0.00,Wunderground v.1.15,2013-04-09 10:35:00,
2013-04-09 06:40:00,44.9,41.9,29.94,West,277,12.0,-999.0,89,0.00,,,0.00,Wunderground v.1.15,2013-04-09 10:40:00,
2013-04-09 06:45:00,44.8,41.8,29.95,WNW,286,11.0,-999.0,89,0.00,,,0.00,Wunderground v.1.15,2013-04-09 10:45:00,
2013-04-09 06:50:00,44.6,41.6,29.95,West,267,10.0,-999.0,89,0.00,,,0.00,Wunderground v.1.15,2013-04-09 10:50:00,
2013-04-09 06:55:00,44.5,41.5,29.96,West,269,10.0,-999.0,89,0.00,,,0.00,Wunderground v.1.15,2013-04-09 10:55:00,
2013-04-09 07:00:00,44.4,41.7,29.96,WSW,254,10.0,-999.0,90,0.00,,,0.00,Wunderground v.1.15,2013-04-09 11:00:00,
2013-04-09 07:05:00,44.3,41.6,29.96,WNW,296,9.0,-999.0,90,0.00,,,0.00,Wunderground v.1.15,2013-04-09 11:05:00,
2013-04-09 07:10:00,44.3,41.6,29.97,WSW,242,9.0,-999.0,90,0.00,,,0.00,Wunderground v.1.15,2013-04-09 11:10:00,
2013-04-09 07:15:00,44.2,41.5,29.97,WNW,284,8.0,-999.0,90,0.00,,,0.00,Wunderground v.1.15,2013-04-09 11:15:00,
2013-04-09 07:20:00,44.2,41.5,29.98,West,279,8.0,-999.0,90,0.00,,,0.00,Wunderground v.1.15,2013-04-09 11:20:00,
2013-04-09 07:25:00,44.1,41.6,29.98,NW,305,8.0,-999.0,91,0.00,,,0.00,Wunderground v.1.15,2013-04-09 11:25:00,
2013-04-09 07:30:00,44.0,41.5,29.99,WSW,257,7.0,-999.0,91,0.00,,,0.00,Wunderground v.1.15,2013-04-09 11:30:00,
2013-04-09 07:35:00,43.9,41.4,29.99,WSW,254,8.0,-999.0,91,0.00,,,0.00,Wunderground v.1.15,2013-04-09 11:35:00,
2013-04-09 07:40:00,43.9,41.4,29.99,WSW,254,9.0,-999.0,91,0.00,,,0.00,Wunderground v.1.15,2013-04-09 11:40:00,
2013-04-09 07:45:00,43.8,41.3,30.00,NW,309,8.0,-999.0,91,0.00,,,0.00,Wunderground v.1.15,2013-04-09 11:45:00,
2013-04-09 07:50:00,43.7,41.5,30.00,West,260,7.0,-999.0,92,0.00,,,0.00,Wunderground v.1.15,2013-04-09 11:50:00,
2013-04-09 07:55:00,43.6,41.4,30.00,WNW,282,7.0,-999.0,92,0.00,,,0.00,Wunderground v.1.15,2013-04-09 11:55:00,
2013-04-09 08:00:00,43.6,41.4,30.01,West,261,7.0,-999.0,92,0.00,,,0.00,Wunderground v.1.15,2013-04-09 12:00:00,
2013-04-09 08:05:00,43.5,41.3,30.01,West,277,7.0,-999.0,92,0.00,,,0.00,Wunderground v.1.15,2013-04-09 12:05:00,
2013-04-09 08:10:00,43.6,41.4,30.01,West,273,9.0,-999.0,92,0.00,,,0.00,Wunderground v.1.15,2013-04-09 12:10:00,
2013-04-09 08:15:00,43.6,41.4,30.01,West,275,10.0,-999.0,92,0.00,,,0.00,Wunderground v.1.15,2013-04-09 12:15:00,
2013-04-09 08:20:00,43.6,41.4,30.01,WSW,258,11.0,-999.0,92,0.00,,,0.00,Wunderground v.1.15,2013-04-09 12:20:00,
2013-04-09 08:25:00,43.6,41.4,30.01,WSW,250,11.0,-999.0,92,0.00,,,0.00,Wunderground v.1.15,2013-04-09 12:25:00,
2013-04-09 08:30:00,43.7,41.5,30.00,West,261,11.0,-999.0,92,0.00,,,0.00,Wunderground v.1.15,2013-04-09 12:30:00,
2013-04-09 08:35:00,43.8,41.6,30.00,West,269,11.0,-999.0,92,0.00,,,0.00,Wunderground v.1.15,2013-04-09 12:35:00,
2013-04-09 08:40:00,43.8,41.6,30.00,WNW,299,9.0,-999.0,92,0.00,,,0.00,Wunderground v.1.15,2013-04-09 12:40:00,
2013-04-09 08:45:00,43.8,41.6,30.00,West,265,7.0,-999.0,92,0.00,,,0.00,Wunderground v.1.15,2013-04-09 12:45:00,
2013-04-09 08:50:00,43.9,41.7,30.01,WNW,292,6.0,-999.0,92,0.00,,,0.00,Wunderground v.1.15,2013-04-09 12:50:00,
2013-04-09 08:55:00,43.9,41.7,30.01,West,263,6.0,-999.0,92,0.00,,,0.00,Wunderground v.1.15,2013-04-09 12:55:00,
2013-04-09 09:00:00,44.1,41.6,30.01,WNW,294,6.0,-999.0,91,0.00,,,0.00,Wunderground v.1.15,2013-04-09 13:00:00,
2013-04-09 09:10:00,44.1,41.4,30.02,WNW,298,6.0,-999.0,90,0.00,,,0.00,Wunderground v.1.15,2013-04-09 13:10:00,
2013-04-09 09:15:00,44.2,41.5,30.02,NW,314,6.0,-999.0,90,0.00,,,0.00,Wunderground v.1.15,2013-04-09 13:15:00,
2013-04-09 09:20:00,44.2,41.5,30.02,West,261,5.0,-999.0,90,0.00,,,0.00,Wunderground v.1.15,2013-04-09 13:20:00,
2013-04-09 09:25:00,44.4,41.7,30.02,WNW,295,5.0,-999.0,90,0.00,,,0.00,Wunderground v.1.15,2013-04-09 13:25:00,
2013-04-09 09:30:00,44.5,41.7,30.02,NW,315,6.0,-999.0,90,0.00,,,0.00,Wunderground v.1.15,2013-04-09 13:30:00,
2013-04-09 09:35:00,44.7,41.9,30.02,WSW,257,5.0,-999.0,90,0.00,,,0.00,Wunderground v.1.15,2013-04-09 13:35:00,
2013-04-09 09:40:00,44.9,41.9,30.02,West,265,4.0,-999.0,89,0.00,,,0.00,Wunderground v.1.15,2013-04-09 13:40:00,
2013-04-09 09:45:00,45.3,42.0,30.03,West,262,4.0,-999.0,88,0.00,,,0.00,Wunderground v.1.15,2013-04-09 13:45:00,
2013-04-09 09:50:00,45.6,42.0,30.03,West,270,5.0,-999.0,87,0.00,,,0.00,Wunderground v.1.15,2013-04-09 13:50:00,
2013-04-09 09:55:00,45.8,41.9,30.03,WNW,298,5.0,-999.0,86,0.00,,,0.00,Wunderground v.1.15,2013-04-09 13:55:00,
2013-04-09 10:00:00,45.8,41.9,30.02,WNW,298,6.0,-999.0,86,0.00,,,0.00,Wunderground v.1.15,2013-04-09 14:00:00,
2013-04-09 10:05:00,46.5,41.9,30.02,West,269,7.0,-999.0,84,0.00,,,0.00,Wunderground v.1.15,2013-04-09 14:05:00,
2013-04-09 10:10:00,46.8,42.2,30.03,WNW,302,7.0,-999.0,84,0.00,,,0.00,Wunderground v.1.15,2013-04-09 14:10:00,
2013-04-09 10:15:00,47.2,42.3,30.03,WSW,256,6.0,-999.0,83,0.00,,,0.00,Wunderground v.1.15,2013-04-09 14:15:00,
2013-04-09 10:20:00,47.2,41.7,30.03,West,274,7.0,-999.0,81,0.00,,,0.00,Wunderground v.1.15,2013-04-09 14:20:00,
2013-04-09 10:25:00,47.2,42.0,30.03,West,281,7.0,-999.0,82,0.00,,,0.00,Wunderground v.1.15,2013-04-09 14:25:00,
2013-04-09 10:30:00,47.5,42.0,30.03,West,266,5.0,-999.0,81,0.00,,,0.00,Wunderground v.1.15,2013-04-09 14:30:00,
2013-04-09 10:35:00,47.8,42.3,30.03,West,263,6.0,-999.0,81,0.00,,,0.00,Wunderground v.1.15,2013-04-09 14:35:00,
2013-04-09 10:40:00,48.0,42.1,30.03,WSW,245,8.0,-999.0,80,0.00,,,0.00,Wunderground v.1.15,2013-04-09 14:40:00,
2013-04-09 10:45:00,47.9,42.0,30.03,WSW,252,9.0,-999.0,80,0.00,,,0.00,Wunderground v.1.15,2013-04-09 14:45:00,
2013-04-09 10:50:00,48.3,42.4,30.04,WSW,257,7.0,-999.0,80,0.00,,,0.00,Wunderground v.1.15,2013-04-09 14:50:00,
2013-04-09 10:55:00,48.2,42.3,30.04,West,267,6.0,-999.0,80,0.00,,,0.00,Wunderground v.1.15,2013-04-09 14:55:00,
2013-04-09 11:00:00,48.6,42.7,30.03,West,266,6.0,-999.0,80,0.00,,,0.00,Wunderground v.1.15,2013-04-09 15:00:00,
2013-04-09 11:05:00,49.0,42.8,30.03,WNW,282,7.0,-999.0,79,0.00,,,0.00,Wunderground v.1.15,2013-04-09 15:05:00,
2013-04-09 11:10:00,49.0,42.8,30.03,West,259,7.0,-999.0,79,0.00,,,0.00,Wunderground v.1.15,2013-04-09 15:10:00,
2013-04-09 11:15:00,49.0,42.1,30.03,WSW,258,6.0,-999.0,77,0.00,,,0.00,Wunderground v.1.15,2013-04-09 15:15:00,
2013-04-09 11:20:00,49.2,42.3,30.03,WSW,255,6.0,-999.0,77,0.00,,,0.00,Wunderground v.1.15,2013-04-09 15:20:00,
2013-04-09 11:25:00,49.6,42.7,30.03,WSW,243,4.0,-999.0,77,0.00,,,0.00,Wunderground v.1.15,2013-04-09 15:25:00,
2013-04-09 11:30:00,50.0,43.1,30.03,WSW,242,3.0,-999.0,77,0.00,,,0.00,Wunderground v.1.15,2013-04-09 15:30:00,
2013-04-09 11:35:00,50.3,42.7,30.03,WSW,242,5.0,-999.0,75,0.00,,,0.00,Wunderground v.1.15,2013-04-09 15:35:00,
2013-04-09 11:40:00,50.4,43.1,30.03,WSW,246,6.0,-999.0,76,0.00,,,0.00,Wunderground v.1.15,2013-04-09 15:40:00,
2013-04-09 11:45:00,50.8,43.8,30.03,SW,223,5.0,-999.0,77,0.00,,,0.00,Wunderground v.1.15,2013-04-09 15:45:00,
2013-04-09 11:50:00,51.4,43.4,30.02,West,265,3.0,-999.0,74,0.00,,,0.00,Wunderground v.1.15,2013-04-09 15:50:00,
2013-04-09 11:55:00,51.8,44.1,30.02,WSW,237,3.0,-999.0,75,0.00,,,0.00,Wunderground v.1.15,2013-04-09 15:55:00,
2013-04-09 12:00:00,52.2,43.8,30.02,SW,232,5.0,-999.0,73,0.00,,,0.00,Wunderground v.1.15,2013-04-09 16:00:00,
2013-04-09 12:05:00,52.2,43.8,30.02,SW,228,5.0,-999.0,73,0.00,,,0.00,Wunderground v.1.15,2013-04-09 16:05:00,
2013-04-09 12:10:00,52.7,44.3,30.01,SW,215,3.0,-999.0,73,0.00,,,0.00,Wunderground v.1.15,2013-04-09 16:10:00,
2013-04-09 12:15:00,53.1,43.9,30.02,SW,218,4.0,-999.0,71,0.00,,,0.00,Wunderground v.1.15,2013-04-09 16:15:00,
2013-04-09 12:20:00,52.8,44.0,30.01,SW,219,4.0,-999.0,72,0.00,,,0.00,Wunderground v.1.15,2013-04-09 16:20:00,
2013-04-09 12:25:00,52.7,43.9,30.00,SW,223,4.0,-999.0,72,0.00,,,0.00,Wunderground v.1.15,2013-04-09 16:25:00,
2013-04-09 12:30:00,53.1,44.3,30.00,SW,223,3.0,-999.0,72,0.00,,,0.00,Wunderground v.1.15,2013-04-09 16:30:00,
2013-04-09 12:35:00,53.7,44.5,30.00,SW,223,1.0,-999.0,71,0.00,,,0.00,Wunderground v.1.15,2013-04-09 16:35:00,
2013-04-09 12:40:00,54.0,44.1,29.99,South,182,1.0,-999.0,69,0.00,,,0.00,Wunderground v.1.15,2013-04-09 16:40:00,
2013-04-09 12:45:00,54.4,44.4,29.99,South,182,2.0,-999.0,69,0.00,,,0.00,Wunderground v.1.15,2013-04-09 16:45:00,
2013-04-09 12:50:00,54.6,44.6,29.98,South,182,0.0,-999.0,69,0.00,,,0.00,Wunderground v.1.15,2013-04-09 16:50:00,
2013-04-09 12:55:00,54.4,44.1,29.99,South,182,2.0,-999.0,68,0.00,,,0.00,Wunderground v.1.15,2013-04-09 16:55:00,
2013-04-09 13:00:00,54.6,44.6,29.99,South,182,2.0,-999.0,69,0.00,,,0.00,Wunderground v.1.15,2013-04-09 17:00:00,
2013-04-09 13:05:00,54.9,44.1,29.98,South,182,2.0,-999.0,67,0.00,,,0.00,Wunderground v.1.15,2013-04-09 17:05:00,
2013-04-09 13:10:00,55.0,44.2,29.98,South,182,3.0,-999.0,67,0.00,,,0.00,Wunderground v.1.15,2013-04-09 17:10:00,
2013-04-09 13:15:00,55.2,44.4,29.98,South,188,3.0,-999.0,67,0.00,,,0.00,Wunderground v.1.15,2013-04-09 17:15:00,
2013-04-09 13:20:00,55.5,44.3,29.98,South,188,3.0,-999.0,66,0.00,,,0.00,Wunderground v.1.15,2013-04-09 17:20:00,
2013-04-09 13:25:00,56.0,44.4,29.97,South,174,3.0,-999.0,65,0.00,,,0.00,Wunderground v.1.15,2013-04-09 17:25:00,
2013-04-09 13:30:00,56.2,44.2,29.97,South,183,4.0,-999.0,64,0.00,,,0.00,Wunderground v.1.15,2013-04-09 17:30:00,
2013-04-09 13:35:00,56.6,44.1,29.97,South,182,4.0,-999.0,63,0.00,,,0.00,Wunderground v.1.15,2013-04-09 17:35:00,
2013-04-09 13:40:00,56.9,44.4,29.97,South,179,4.0,-999.0,63,0.00,,,0.00,Wunderground v.1.15,2013-04-09 17:40:00,
2013-04-09 13:45:00,57.4,44.9,29.96,South,178,4.0,-999.0,63,0.00,,,0.00,Wunderground v.1.15,2013-04-09 17:45:00,
2013-04-09 13:50:00,57.7,44.3,29.96,South,178,3.0,-999.0,61,0.00,,,0.00,Wunderground v.1.15,2013-04-09 17:50:00,
2013-04-09 13:55:00,58.0,44.2,29.97,SSW,196,2.0,-999.0,60,0.00,,,0.00,Wunderground v.1.15,2013-04-09 17:55:00,
2013-04-09 14:00:00,58.3,44.9,29.96,SSW,196,2.0,-999.0,61,0.00,,,0.00,Wunderground v.1.15,2013-04-09 18:00:00,
2013-04-09 14:05:00,58.7,44.8,29.96,South,169,3.0,-999.0,60,0.00,,,0.00,Wunderground v.1.15,2013-04-09 18:05:00,
2013-04-09 14:10:00,58.5,44.7,29.96,South,169,4.0,-999.0,60,0.00,,,0.00,Wunderground v.1.15,2013-04-09 18:10:00,
2013-04-09 14:20:00,58.9,44.6,29.96,South,169,1.0,-999.0,59,0.00,,,0.00,Wunderground v.1.15,2013-04-09 18:20:00,
2013-04-09 14:25:00,59.3,45.0,29.95,South,169,1.0,-999.0,59,0.00,,,0.00,Wunderground v.1.15,2013-04-09 18:25:00,
2013-04-09 14:30:00,59.3,44.5,29.95,SSE,168,3.0,-999.0,58,0.00,,,0.00,Wunderground v.1.15,2013-04-09 18:30:00,
2013-04-09 14:35:00,59.7,44.9,29.95,SSE,168,3.0,-999.0,58,0.00,,,0.00,Wunderground v.1.15,2013-04-09 18:35:00,
2013-04-09 14:40:00,60.4,45.1,29.95,SSE,168,2.0,-999.0,57,0.00,,,0.00,Wunderground v.1.15,2013-04-09 18:40:00,
2013-04-09 14:45:00,61.1,44.8,29.95,SSE,168,2.0,-999.0,55,0.00,,,0.00,Wunderground v.1.15,2013-04-09 18:45:00,
2013-04-09 14:55:00,61.7,44.4,29.94,SSE,168,2.0,-999.0,53,0.00,,,0.00,Wunderground v.1.15,2013-04-09 18:55:00,
2013-04-09 15:00:00,61.8,45.0,29.94,SSE,168,1.0,-999.0,54,0.00,,,0.00,Wunderground v.1.15,2013-04-09 19:00:00,
2013-04-09 15:05:00,62.1,45.2,29.94,South,178,1.0,-999.0,54,0.00,,,0.00,Wunderground v.1.15,2013-04-09 19:05:00,
2013-04-09 15:10:00,62.3,43.9,29.94,SSW,202,3.0,-999.0,51,0.00,,,0.00,Wunderground v.1.15,2013-04-09 19:10:00,
2013-04-09 15:15:00,62.7,44.8,29.94,SSW,202,4.0,-999.0,52,0.00,,,0.00,Wunderground v.1.15,2013-04-09 19:15:00,
2013-04-09 15:20:00,62.9,44.5,29.94,SSW,201,4.0,-999.0,51,0.00,,,0.00,Wunderground v.1.15,2013-04-09 19:20:00,
2013-04-09 15:30:00,63.6,45.1,29.93,SSW,198,2.0,-999.0,51,0.00,,,0.00,Wunderground v.1.15,2013-04-09 19:30:00,
2013-04-09 15:35:00,63.7,44.7,29.93,WSW,237,2.0,-999.0,50,0.00,,,0.00,Wunderground v.1.15,2013-04-09 19:35:00,
2013-04-09 15:40:00,64.0,44.4,29.92,SW,232,2.0,-999.0,49,0.00,,,0.00,Wunderground v.1.15,2013-04-09 19:40:00,
2013-04-09 15:45:00,64.1,44.5,29.92,WSW,252,3.0,-999.0,49,0.00,,,0.00,Wunderground v.1.15,2013-04-09 19:45:00,
2013-04-09 15:50:00,64.2,45.2,29.92,WSW,258,4.0,-999.0,50,0.00,,,0.00,Wunderground v.1.15,2013-04-09 19:50:00,
2013-04-09 15:55:00,64.9,44.2,29.91,SW,220,6.0,-999.0,47,0.00,,,0.00,Wunderground v.1.15,2013-04-09 19:55:00,
2013-04-09 16:00:00,64.7,44.5,29.91,SW,220,4.0,-999.0,48,0.00,,,0.00,Wunderground v.1.15,2013-04-09 20:00:00,
2013-04-09 16:05:00,64.9,44.7,29.91,SW,220,3.0,-999.0,48,0.00,,,0.00,Wunderground v.1.15,2013-04-09 20:05:00,
2013-04-09 16:10:00,64.8,44.6,29.90,SW,220,3.0,-999.0,48,0.00,,,0.00,Wunderground v.1.15,2013-04-09 20:10:00,
2013-04-09 16:15:00,64.7,44.0,29.90,SW,220,3.0,-999.0,47,0.00,,,0.00,Wunderground v.1.15,2013-04-09 20:15:00,
2013-04-09 16:20:00,64.8,45.2,29.90,SW,220,2.0,-999.0,49,0.00,,,0.00,Wunderground v.1.15,2013-04-09 20:20:00,
2013-04-09 16:25:00,65.1,44.9,29.89,SW,229,3.0,-999.0,48,0.00,,,0.00,Wunderground v.1.15,2013-04-09 20:25:00,
2013-04-09 16:30:00,65.0,44.3,29.89,SW,229,4.0,-999.0,47,0.00,,,0.00,Wunderground v.1.15,2013-04-09 20:30:00,
2013-04-09 16:35:00,65.1,43.8,29.90,SW,229,2.0,-999.0,46,0.00,,,0.00,Wunderground v.1.15,2013-04-09 20:35:00,
2013-04-09 16:40:00,65.2,44.5,29.90,SW,229,1.0,-999.0,47,0.00,,,0.00,Wunderground v.1.15,2013-04-09 20:40:00,
2013-04-09 16:45:00,65.1,44.9,29.91,SW,229,2.0,-999.0,48,0.00,,,0.00,Wunderground v.1.15,2013-04-09 20:45:00,
2013-04-09 16:50:00,65.2,43.9,29.90,West,273,3.0,-999.0,46,0.00,,,0.00,Wunderground v.1.15,2013-04-09 20:50:00,
2013-04-09 16:55:00,65.0,43.1,29.90,West,272,5.0,-999.0,45,0.00,,,0.00,Wunderground v.1.15,2013-04-09 20:55:00,
2013-04-09 17:00:00,65.0,43.1,29.90,West,272,5.0,-999.0,45,0.00,,,0.00,Wunderground v.1.15,2013-04-09 21:00:00,
2013-04-09 17:05:00,64.9,43.6,29.90,West,279,4.0,-999.0,46,0.00,,,0.00,Wunderground v.1.15,2013-04-09 21:05:00,
2013-04-09 17:10:00,64.9,43.6,29.91,West,279,4.0,-999.0,46,0.00,,,0.00,Wunderground v.1.15,2013-04-09 21:10:00,
2013-04-09 17:15:00,64.8,43.5,29.90,West,279,4.0,-999.0,46,0.00,,,0.00,Wunderground v.1.15,2013-04-09 21:15:00,
2013-04-09 17:20:00,64.7,45.1,29.91,West,279,3.0,-999.0,49,0.00,,,0.00,Wunderground v.1.15,2013-04-09 21:20:00,
2013-04-09 17:30:00,64.5,47.0,29.90,West,279,2.0,-999.0,53,0.00,,,0.00,Wunderground v.1.15,2013-04-09 21:30:00,
2013-04-09 17:35:00,64.3,45.3,29.89,NW,316,3.0,-999.0,50,0.00,,,0.00,Wunderground v.1.15,2013-04-09 21:35:00,
2013-04-09 17:40:00,64.2,45.7,29.89,NNW,329,4.0,-999.0,51,0.00,,,0.00,Wunderground v.1.15,2013-04-09 21:40:00,
2013-04-09 17:45:00,64.2,45.7,29.88,NNW,332,5.0,-999.0,51,0.00,,,0.00,Wunderground v.1.15,2013-04-09 21:45:00,
2013-04-09 17:50:00,64.1,45.1,29.88,NNW,338,5.0,-999.0,50,0.00,,,0.00,Wunderground v.1.15,2013-04-09 21:50:00,
2013-04-09 17:55:00,63.9,45.4,29.88,NNE,13,6.0,-999.0,51,0.00,,,0.00,Wunderground v.1.15,2013-04-09 21:55:00,
2013-04-09 18:00:00,63.5,46.1,29.88,NNE,17,6.0,-999.0,53,0.00,,,0.00,Wunderground v.1.15,2013-04-09 22:00:00,
2013-04-09 18:05:00,62.9,46.5,29.88,NNE,14,7.0,-999.0,55,0.00,,,0.00,Wunderground v.1.15,2013-04-09 22:05:00,
2013-04-09 18:10:00,62.3,46.9,29.88,NNE,19,7.0,-999.0,57,0.00,,,0.00,Wunderground v.1.15,2013-04-09 22:10:00,
2013-04-09 18:15:00,61.8,47.3,29.88,North,5,6.0,-999.0,59,0.00,,,0.00,Wunderground v.1.15,2013-04-09 22:15:00,
2013-04-09 18:20:00,61.2,47.6,29.89,NNW,347,7.0,-999.0,61,0.00,,,0.00,Wunderground v.1.15,2013-04-09 22:20:00,
2013-04-09 18:25:00,60.4,47.7,29.89,North,360,8.0,-999.0,63,0.00,,,0.00,Wunderground v.1.15,2013-04-09 22:25:00,
2013-04-09 18:35:00,59.3,48.3,29.88,North,360,7.0,-999.0,67,0.00,,,0.00,Wunderground v.1.15,2013-04-09 22:35:00,
2013-04-09 18:40:00,58.9,48.4,29.87,North,9,5.0,-999.0,68,0.00,,,0.00,Wunderground v.1.15,2013-04-09 22:40:00,
2013-04-09 18:45:00,58.5,48.7,29.87,North,9,4.0,-999.0,70,0.00,,,0.00,Wunderground v.1.15,2013-04-09 22:45:00,
2013-04-09 18:50:00,58.1,48.7,29.88,NNE,12,2.0,-999.0,71,0.00,,,0.00,Wunderground v.1.15,2013-04-09 22:50:00,
2013-04-09 18:55:00,57.6,48.3,29.88,NNE,19,4.0,-999.0,71,0.00,,,0.00,Wunderground v.1.15,2013-04-09 22:55:00,
2013-04-09 19:00:00,57.3,48.0,29.88,NNE,19,4.0,-999.0,71,0.00,,,0.00,Wunderground v.1.15,2013-04-09 23:00:00,
2013-04-09 19:05:00,57.0,48.4,29.88,NNE,26,4.0,-999.0,73,0.00,,,0.00,Wunderground v.1.15,2013-04-09 23:05:00,
2013-04-09 19:10:00,56.2,47.7,29.88,NE,41,5.0,-999.0,73,0.00,,,0.00,Wunderground v.1.15,2013-04-09 23:10:00,
2013-04-09 19:15:00,55.0,47.6,29.88,NE,44,6.0,-999.0,76,0.00,,,0.00,Wunderground v.1.15,2013-04-09 23:15:00,
2013-04-09 19:20:00,54.1,47.4,29.89,NNE,32,6.0,-999.0,78,0.00,,,0.00,Wunderground v.1.15,2013-04-09 23:20:00,
2013-04-09 19:25:00,53.2,46.9,29.88,NNE,14,7.0,-999.0,79,0.00,,,0.00,Wunderground v.1.15,2013-04-09 23:25:00,
2013-04-09 19:30:00,52.4,46.4,29.88,NNE,30,9.0,-999.0,80,0.00,,,0.00,Wunderground v.1.15,2013-04-09 23:30:00,
2013-04-09 19:35:00,51.8,46.2,29.89,NNE,23,8.0,-999.0,81,0.00,,,0.00,Wunderground v.1.15,2013-04-09 23:35:00,
2013-04-09 19:40:00,51.0,45.7,29.93,NNW,348,9.0,-999.0,82,0.00,,,0.00,Wunderground v.1.15,2013-04-09 23:40:00,
2013-04-09 19:45:00,50.4,45.7,29.93,NNW,339,13.0,-999.0,84,0.00,,,0.01,Wunderground v.1.15,2013-04-09 23:45:00,
2013-04-09 19:50:00,50.2,45.9,29.92,North,9,10.0,-999.0,85,0.00,,,0.01,Wunderground v.1.15,2013-04-09 23:50:00,
2013-04-09 19:55:00,49.9,45.9,29.91,NNE,17,7.0,-999.0,86,0.00,,,0.01,Wunderground v.1.15,2013-04-09 23:55:00,
2013-04-09 20:00:00,49.4,45.7,29.91,NNE,20,6.0,-999.0,87,0.04,,,0.02,Wunderground v.1.15,2013-04-10 00:00:00,
2013-04-09 20:05:00,49.0,45.6,29.90,NE,55,5.0,-999.0,88,0.04,,,0.02,Wunderground v.1.15,2013-04-10 00:05:00,
2013-04-09 20:10:00,48.5,45.1,29.89,ENE,77,5.0,-999.0,88,0.04,,,0.02,Wunderground v.1.15,2013-04-10 00:10:00,
2013-04-09 20:15:00,47.9,44.8,29.88,ENE,71,5.0,-999.0,89,0.00,,,0.02,Wunderground v.1.15,2013-04-10 00:15:00,
2013-04-09 20:20:00,47.4,44.6,29.88,ENE,69,5.0,-999.0,90,0.00,,,0.02,Wunderground v.1.15,2013-04-10 00:20:00,
2013-04-09 20:25:00,47.0,44.2,29.87,NE,55,5.0,-999.0,90,0.00,,,0.02,Wunderground v.1.15,2013-04-10 00:25:00,
2013-04-09 20:30:00,46.6,43.8,29.87,NE,55,5.0,-999.0,90,0.00,,,0.02,Wunderground v.1.15,2013-04-10 00:30:00,
2013-04-09 20:35:00,46.3,43.8,29.87,NE,55,5.0,-999.0,91,0.00,,,0.02,Wunderground v.1.15,2013-04-10 00:35:00,
2013-04-09 20:40:00,46.2,43.7,29.90,NNW,342,6.0,-999.0,91,0.00,,,0.02,Wunderground v.1.15,2013-04-10 00:40:00,
2013-04-09 20:45:00,46.1,43.9,29.90,NE,37,12.0,-999.0,92,0.00,,,0.02,Wunderground v.1.15,2013-04-10 00:45:00,
2013-04-09 20:50:00,46.1,43.9,29.87,NE,48,12.0,-999.0,92,0.00,,,0.02,Wunderground v.1.15,2013-04-10 00:50:00,
2013-04-09 20:55:00,46.2,44.0,29.88,NE,55,4.0,-999.0,92,0.00,,,0.02,Wunderground v.1.15,2013-04-10 00:55:00,
2013-04-09 21:00:00,46.5,44.3,29.87,ENE,69,4.0,-999.0,92,0.00,,,0.03,Wunderground v.1.15,2013-04-10 01:00:00,
2013-04-09 21:05:00,46.6,44.7,29.87,ENE,69,4.0,-999.0,93,0.00,,,0.03,Wunderground v.1.15,2013-04-10 01:05:00,
2013-04-09 21:15:00,46.4,44.2,29.89,NNW,343,5.0,-999.0,92,0.00,,,0.03,Wunderground v.1.15,2013-04-10 01:15:00,
2013-04-09 21:20:00,46.3,44.1,29.87,NNE,25,8.0,-999.0,92,0.00,,,0.04,Wunderground v.1.15,2013-04-10 01:20:00,
2013-04-09 21:25:00,46.2,44.3,29.84,ENE,74,7.0,-999.0,93,0.09,,,0.05,Wunderground v.1.15,2013-04-10 01:25:00,
2013-04-09 21:30:00,46.0,44.1,29.83,East,81,6.0,-999.0,93,0.09,,,0.05,Wunderground v.1.15,2013-04-10 01:30:00,
2013-04-09 21:35:00,45.8,43.9,29.83,ENE,74,7.0,-999.0,93,0.06,,,0.05,Wunderground v.1.15,2013-04-10 01:35:00,
2013-04-09 21:40:00,45.6,43.7,29.83,ENE,65,6.0,-999.0,93,0.04,,,0.06,Wunderground v.1.15,2013-04-10 01:40:00,
2013-04-09 21:45:00,45.6,43.7,29.85,ENE,59,5.0,-999.0,93,0.04,,,0.06,Wunderground v.1.15,2013-04-10 01:45:00,
2013-04-09 21:50:00,45.6,43.7,29.85,ENE,59,4.0,-999.0,93,0.06,,,0.07,Wunderground v.1.15,2013-04-10 01:50:00,
2013-04-09 21:55:00,45.6,44.0,29.83,ENE,59,4.0,-999.0,94,0.06,,,0.07,Wunderground v.1.15,2013-04-10 01:55:00,
2013-04-09 22:00:00,45.6,44.0,29.84,NNE,32,5.0,-999.0,94,0.05,,,0.07,Wunderground v.1.15,2013-04-10 02:00:00,
2013-04-09 22:05:00,46.0,44.4,29.91,NW,318,7.0,-999.0,94,0.05,,,0.08,Wunderground v.1.15,2013-04-10 02:05:00,
2013-04-09 22:10:00,46.2,44.8,29.87,NNE,17,9.0,-999.0,95,0.08,,,0.09,Wunderground v.1.15,2013-04-10 02:10:00,
2013-04-09 22:15:00,46.3,44.9,29.88,North,10,7.0,-999.0,95,0.08,,,0.09,Wunderground v.1.15,2013-04-10 02:15:00,
2013-04-09 22:20:00,46.7,45.3,29.94,NNW,337,10.0,-999.0,95,0.06,,,0.10,Wunderground v.1.15,2013-04-10 02:20:00,
2013-04-09 22:25:00,46.8,45.4,29.95,NNW,347,13.0,-999.0,95,0.11,,,0.11,Wunderground v.1.15,2013-04-10 02:25:00,
2013-04-09 22:30:00,46.9,45.5,29.91,North,350,12.0,-999.0,95,0.11,,,0.11,Wunderground v.1.15,2013-04-10 02:30:00,
2013-04-09 22:40:00,47.5,46.1,29.90,NE,42,6.0,-999.0,95,0.11,,,0.13,Wunderground v.1.15,2013-04-10 02:40:00,
2013-04-09 22:45:00,47.6,46.2,29.90,NNE,30,6.0,-999.0,95,0.09,,,0.13,Wunderground v.1.15,2013-04-10 02:45:00,
2013-04-09 22:50:00,47.5,46.1,29.89,NE,34,5.0,-999.0,95,0.13,,,0.15,Wunderground v.1.15,2013-04-10 02:50:00,
2013-04-09 22:55:00,47.3,45.9,29.88,SE,126,3.0,-999.0,95,0.12,,,0.16,Wunderground v.1.15,2013-04-10 02:55:00,
2013-04-09 23:00:00,47.2,45.8,29.87,SSE,153,5.0,-999.0,95,0.14,,,0.17,Wunderground v.1.15,2013-04-10 03:00:00,
2013-04-09 23:05:00,47.2,45.8,29.86,SSE,149,6.0,-999.0,95,0.12,,,0.18,Wunderground v.1.15,2013-04-10 03:05:00,
2013-04-09 23:10:00,47.1,45.7,29.86,SSE,155,4.0,-999.0,95,0.15,,,0.19,Wunderground v.1.15,2013-04-10 03:10:00,
2013-04-09 23:15:00,47.2,45.8,29.87,South,176,5.0,-999.0,95,0.11,,,0.20,Wunderground v.1.15,2013-04-10 03:15:00,
2013-04-09 23:20:00,47.3,46.2,29.86,South,186,6.0,-999.0,96,0.14,,,0.21,Wunderground v.1.15,2013-04-10 03:20:00,
2013-04-09 23:25:00,47.4,46.3,29.85,South,177,6.0,-999.0,96,0.14,,,0.21,Wunderground v.1.15,2013-04-10 03:25:00,
2013-04-09 23:30:00,47.4,46.3,29.84,SSE,160,4.0,-999.0,96,0.14,,,0.23,Wunderground v.1.15,2013-04-10 03:30:00,
2013-04-09 23:35:00,47.5,46.4,29.84,South,170,4.0,-999.0,96,0.16,,,0.24,Wunderground v.1.15,2013-04-10 03:35:00,
2013-04-09 23:40:00,47.7,46.6,29.83,South,175,5.0,-999.0,96,0.13,,,0.26,Wunderground v.1.15,2013-04-10 03:40:00,
2013-04-09 23:45:00,47.8,46.7,29.84,South,188,5.0,-999.0,96,0.15,,,0.27,Wunderground v.1.15,2013-04-10 03:45:00,
2013-04-09 23:50:00,48.1,47.0,29.84,SW,222,6.0,-999.0,96,0.10,,,0.28,Wunderground v.1.15,2013-04-10 03:50:00,
2013-04-09 23:55:00,48.4,47.3,29.84,SW,223,6.0,-999.0,96,0.14,,,0.29,Wunderground v.1.15,2013-04-10 03:55:00,